This is the latest recevied weather packets stored in our database for station/object WI0K. If no packets are shown the sender has not sent any weather packets the latest 10 day(s).
| Time | Temp. | Humidity | Pressure | Rain* | Wind** | Luminosity | Snow |
|---|---|---|---|---|---|---|---|
| 1788546091 | 30° C | 26% | 1018.2 hPa | 0 mm | - | 911 W/m² | - |
| 1788545790 | 30.56° C | 25% | 1018.3 hPa | 0 mm | - | 909 W/m² | - |
| 1788545489 | 30.56° C | 25% | 1018.3 hPa | 0 mm | - | 902 W/m² | - |
| 1788545188 | 30.56° C | 25% | 1018.4 hPa | 0 mm | - | 895 W/m² | - |
| 1788544888 | 30° C | 25% | 1018.5 hPa | 0 mm | - | 895 W/m² | - |
| 1788544587 | 30° C | 26% | 1018.5 hPa | 0 mm | - | 891 W/m² | - |
| 1788544286 | 30° C | 26% | 1018.5 hPa | 0 mm | - | 884 W/m² | - |
| 1788543986 | 30° C | 26% | 1018.5 hPa | 0 mm | - | 880 W/m² | - |
| 1788543685 | 30° C | 25% | 1018.5 hPa | 0 mm | - | 875 W/m² | - |
| 1788543384 | 30° C | 26% | 1018.5 hPa | 0 mm | - | 866 W/m² | - |
| 1788543083 | 29.44° C | 28% | 1018.5 hPa | 0 mm | - | 857 W/m² | - |
| 1788542781 | 28.89° C | 26% | 1018.5 hPa | 0 mm | - | 848 W/m² | - |
| 1788542480 | 28.89° C | 26% | 1018.5 hPa | 0 mm | - | 842 W/m² | - |
| 1788542179 | 29.44° C | 25% | 1018.5 hPa | 0 mm | - | 834 W/m² | - |
| 1788541878 | 28.89° C | 27% | 1018.5 hPa | 0 mm | - | 824 W/m² | - |
| 1788541578 | 29.44° C | 27% | 1018.5 hPa | 0 mm | - | 813 W/m² | - |
| 1788541277 | 28.89° C | 28% | 1018.5 hPa | 0 mm | - | 805 W/m² | - |
| 1788540976 | 28.89° C | 28% | 1018.5 hPa | 0 mm | - | 791 W/m² | - |
| 1788540675 | 28.33° C | 29% | 1018.5 hPa | 0 mm | - | 783 W/m² | - |
| 1788540374 | 27.78° C | 33% | 1018.5 hPa | 0 mm | - | 769 W/m² | - |
| 1788540074 | 27.78° C | 31% | 1018.6 hPa | 0 mm | - | 759 W/m² | - |
| 1788539779 | 28.33° C | 29% | 1018.6 hPa | 0 mm | - | 745 W/m² | - |
| 1788539472 | 28.33° C | 30% | 1018.5 hPa | 0 mm | - | 735 W/m² | - |
| 1788539171 | 28.33° C | 31% | 1018.5 hPa | 0 mm | - | 723 W/m² | - |
| 1788538871 | 27.78° C | 29% | 1018.5 hPa | 0 mm | - | 708 W/m² | - |
* Rain latest hour (hover to see other rain measurements)
** Current wind speed in m/s (hover to see current wind gust speed)